Regional Weather Roundup
Issued by NWS

Home | Current Version | Previous Version | Text Only | Print | Product List | Glossary On
Versions: 1 2 3 4 5 6 7 8 9 10 11 12 13 14 15 16 17 18 19 20 21 22 23 24 25 26 27 28 29 30 31 32 33 34 35 36 37 38 39 40 41 42 43 44 45 46 47 48 49
000
ASUS46 KPQR 262110
RWROR

OREGON REGIONAL WEATHER ROUNDUP
NATIONAL WEATHER SERVICE PORTLAND OR
100 PM PST MON JAN 26 2015

NOTE: "FAIR" INDICATES FEW OR NO CLOUDS BELOW 12,000 FEET WITH
NO SIGNIFICANT WEATHER AND/OR OBSTRUCTIONS TO VISIBILITY.

ORZ001>013-262200-
NORTHWEST OREGON


CITY           SKY/WX    TMP DP  RH WIND       PRES   REMARKS
ASTORIA        SUNNY     58  49  72 SW13      29.94F
NEWPORT        MOSUNNY   59  52  77 S12       30.01F
PORTLAND       PTSUNNY   50  45  83 N3        30.02F
VANCOUVER WA   MOSUNNY   51  44  77 SE6       30.01F
SCAPPOOSE      CLOUDY    44  43  96 CALM      30.01F FOG
HILLSBORO      FOG       43  43 100 CALM      30.01F VSB 1/4
AURORA         CLOUDY    45  44  97 CALM      30.03F FOG
MCMINNVILLE    CLOUDY    45  44  97 CALM      30.02F
SALEM          MOSUNNY   51  45  79 NW6       30.00F
CORVALLIS      CLOUDY    45  43  93 CALM      30.02F VSB 1/4
EUGENE         PTSUNNY   56  50  80 CALM      30.01F
$$

ORZ021-028-262200-
SOUTHWEST OREGON


CITY           SKY/WX    TMP DP  RH WIND       PRES   REMARKS
NORTH BEND     MOSUNNY   57  55  94 W5        30.00F
BROOKINGS      PTSUNNY   57  51  80 VRB6      30.02F
ROSEBURG       CLOUDY    49  47  93 CALM      30.01F FOG
SEXTON SUMMIT  PTSUNNY   60  25  26 VRB6      30.05F
MEDFORD        FOG       43  41  93 CALM      30.05F VSB 1/2
$$

ORZ014>016-041-262200-
COLUMBIA GORGE


CITY           SKY/WX    TMP DP  RH WIND       PRES   REMARKS
TROUTDALE      MOSUNNY   55  43  63 E8        30.00F
THE DALLES     CLOUDY    44  38  79 CALM      30.08F
$$

ORZ029>031-041-044-049-050-061>064-502-503-505>511-262200-
EASTERN OREGON


CITY           SKY/WX    TMP DP  RH WIND       PRES   REMARKS
REDMOND        MOSUNNY   64  36  35 SE7       30.04F
BEND           MOSUNNY   64  34  32 S7        30.07F
PRINEVILLE     MOSUNNY   63  37  39 S8        30.07S
KLAMATH FALLS  PTSUNNY   57  36  45 N3        30.10F
LAKEVIEW       SUNNY     61  34  36 S3        30.14F
HERMISTON      CLOUDY    38  36  92 CALM      30.08F FOG
PENDLETON      FOG       36  36 100 NW5       30.04F VSB<1/4 WCI  32
JOHN DAY       SUNNY     62  35  36 E7        30.09F
MEACHAM        SUNNY     54  34  46 CALM      30.08F
LA GRANDE      SUNNY     48  30  49 S24G31    30.14F
BAKER CITY     SUNNY     45  35  68 E16       30.20F
BURNS          SUNNY     42  34  73 E10       30.17F
ROME             N/A     33  30  88 CALM      30.18F
ONTARIO        CLOUDY    43  33  68 NW5       30.28F
$$


USA.gov is the U.S. government's official web portal to all federal, state and local government web resources and services.